Weather reports worldwide

Advertisment
St. Mary's, United Kingdom (3803): temperature & dewpoint: 04.12.2018 10:00:00 - 10.12.2018 10:00:00 (GMT)St. Mary's, United Kingdom (3803): temperature -20cm: 04.12.2018 10:00:00 - 10.12.2018 10:00:00 (GMT)St. Mary's, United Kingdom (3803): wind speed & gusts: 04.12.2018 10:00:00 - 10.12.2018 10:00:00 (GMT)St. Mary's, United Kingdom (3803): wind direction: 04.12.2018 10:00:00 - 10.12.2018 10:00:00 (GMT)St. Mary's, United Kingdom (3803): reduced air pressure: 04.12.2018 10:00:00 - 10.12.2018 10:00:00 (GMT)St. Mary's, United Kingdom (3803): visibility: 04.12.2018 10:00:00 - 10.12.2018 10:00:00 (GMT)St. Mary's, United Kingdom (3803): precipitation: 04.12.2018 10:00:00 - 10.12.2018 10:00:00 (GMT)
Date & Time tt [°C] td [°C] tt -20cm [°C] ff [km/h] ff [kn] fx [km/h] fx [kn] dd ppp [hPa] vv [km] rr [mm]
10.12.2018 10:00:00 - - - - - - - - - - -
10.12.2018 09:00:00 10,5 7,6 10,2 13 7 - - WSW 1030,8 15 0,0
10.12.2018 08:00:00 10,3 7,3 - 16 9 - - W 1030,2 10 0,0
10.12.2018 07:00:00 10,0 6,7 - 15 8 - - W 1030,6 22 0,0
10.12.2018 06:00:00 10,1 6,4 - 16 9 - - W 1030,7 29 0,0
10.12.2018 05:00:00 10,1 6,4 - 22 12 - - W 1030,4 24 0,0
10.12.2018 04:00:00 9,7 6,4 - 21 11 - - W 1030,5 24 0,0
10.12.2018 03:00:00 9,8 6,2 - 22 12 - - WNW 1030,6 24 0,0
10.12.2018 02:00:00 9,9 5,9 - 24 13 - - WNW 1030,3 19 0,0
10.12.2018 01:00:00 9,9 6,5 - 22 12 - - WNW 1030,3 17 0,0
10.12.2018 00:00:00 10,2 5,7 - 26 14 - - WNW 1030,1 24 0,0
09.12.2018 23:00:00 10,2 6,5 - 24 13 - - WNW 1029,7 14 0,0
09.12.2018 22:00:00 10,2 6,0 - 28 15 48 26 NW 1029,5 14 0,0
09.12.2018 21:00:00 10,4 5,8 - 35 19 50 27 WNW 1029,1 20 0,0
09.12.2018 20:00:00 10,6 6,5 - 34 18 50 27 WNW 1028,6 13 0,0
09.12.2018 19:00:00 10,4 6,5 - 35 19 52 28 WNW 1027,8 14 0,0
09.12.2018 18:00:00 10,7 6,1 - 39 21 54 29 WNW 1026,8 14 0,0
09.12.2018 17:00:00 10,6 6,5 - 35 19 61 33 WNW 1026,1 13 0,0
09.12.2018 16:00:00 10,8 6,3 - 42 23 59 32 WNW 1025,3 12 0,0
09.12.2018 15:00:00 11,0 6,5 - 42 23 63 34 WNW 1024,2 12 0,0
09.12.2018 14:00:00 11,4 7,2 - 46 25 67 36 WNW 1023,5 12 0,0
09.12.2018 13:00:00 11,3 7,0 - 52 28 72 39 WNW 1022,5 13 0,0
09.12.2018 12:00:00 11,4 7,3 - 50 27 68 37 WNW 1021,6 13 0,0
09.12.2018 11:00:00 11,3 7,3 - 54 29 72 39 WNW 1020,8 11 0,0
09.12.2018 10:00:00 11,2 7,1 - 57 31 83 45 WNW 1019,3 9 0,0
09.12.2018 09:00:00 11,2 7,4 10,7 59 32 85 46 WNW 1018,0 9 0,0
09.12.2018 08:00:00 11,1 7,2 - 65 35 93 50 WNW 1016,4 9 0,0
09.12.2018 07:00:00 11,1 7,6 - 54 29 78 42 W 1015,0 10 0,0
09.12.2018 06:00:00 11,2 8,3 - 50 27 81 44 W 1013,7 8 0,0
09.12.2018 05:00:00 11,2 7,6 - 55 30 94 51 W 1012,9 7 0,0
09.12.2018 04:00:00 11,1 7,7 - 59 32 96 52 W 1012,5 8 0,0
09.12.2018 03:00:00 11,0 7,7 - 57 31 85 46 W 1012,1 7 0,0
09.12.2018 02:00:00 9,8 7,8 - 57 31 89 48 W 1011,6 7 0,0
09.12.2018 01:00:00 10,7 6,6 - 59 32 89 48 W 1011,2 9 0,0
09.12.2018 00:00:00 10,6 5,4 - 52 28 87 47 W 1010,9 12 0,0
08.12.2018 23:00:00 10,8 6,5 - 55 30 85 46 W 1010,6 8 0,0
08.12.2018 22:00:00 10,7 5,7 - 54 29 85 46 W 1010,1 9 0,0
08.12.2018 21:00:00 10,5 6,7 - 57 31 94 51 W 1009,7 11 0,0
08.12.2018 20:00:00 11,1 7,3 - 50 27 78 42 W 1009,1 8 0,0
08.12.2018 19:00:00 11,4 7,6 - 48 26 78 42 W 1009,1 8 0,0
08.12.2018 18:00:00 11,5 8,2 - 54 29 83 45 W 1008,7 7 0,0
08.12.2018 17:00:00 11,3 8,5 - 57 31 91 49 W 1008,5 8 0,2
08.12.2018 16:00:00 12,2 9,4 - 48 26 76 41 W 1008,5 7 0,0
08.12.2018 15:00:00 12,4 9,5 - 55 30 76 41 W 1008,5 7 0,0
08.12.2018 14:00:00 12,5 10,6 - 54 29 76 41 W 1008,7 7 0,0
08.12.2018 13:00:00 12,7 11,4 - 50 27 68 37 WSW 1008,9 7 0,0
08.12.2018 12:00:00 12,4 11,9 - 37 20 70 38 WSW 1009,4 10 0,2
08.12.2018 11:00:00 12,1 11,6 - 46 25 72 39 WSW 1010,2 8 0,0
08.12.2018 10:00:00 11,6 11,4 - 44 24 63 34 SW 1010,8 2,5 0,2
08.12.2018 09:00:00 11,1 10,7 10,7 35 19 65 35 WSW 1011,9 3,5 0,2
08.12.2018 08:00:00 11,0 10,5 - 42 23 67 36 WSW 1012,8 2,5 0,2
08.12.2018 07:00:00 11,2 9,6 - 39 21 67 36 WSW 1013,1 8 0,0
08.12.2018 06:00:00 11,5 8,8 - 44 24 67 36 WSW 1013,5 9 0,0
08.12.2018 05:00:00 11,3 7,8 - 48 26 76 41 W 1013,6 11 0,0
08.12.2018 04:00:00 11,1 7,4 - 50 27 70 38 W 1013,7 12 0,0
08.12.2018 03:00:00 10,9 7,2 - 48 26 70 38 W 1014,3 12 0,0
08.12.2018 02:00:00 10,8 7,2 - 46 25 76 41 W 1014,4 12 0,0
08.12.2018 01:00:00 11,0 6,0 - 54 29 74 40 W 1014,4 12 0,0
08.12.2018 00:00:00 10,8 6,2 - 52 28 76 41 W 1014,0 12 0,0
07.12.2018 23:00:00 10,6 6,8 - 48 26 76 41 W 1013,8 11 0,0
07.12.2018 22:00:00 10,6 7,3 - 48 26 78 42 W 1013,6 11 0,0
07.12.2018 21:00:00 9,9 6,7 - 52 28 76 41 W 1013,4 13 0,0
07.12.2018 20:00:00 10,0 5,9 - 52 28 80 43 W 1013,1 14 0,0
07.12.2018 19:00:00 9,4 6,2 - 54 29 85 46 W 1012,7 19 0,2
07.12.2018 18:00:00 10,0 6,1 - 54 29 78 42 W 1012,4 14 0,0
07.12.2018 17:00:00 9,8 5,6 - 52 28 76 41 W 1011,7 10 0,0
07.12.2018 16:00:00 9,1 5,5 - 52 28 74 40 W 1011,2 10 0,0
07.12.2018 15:00:00 8,0 6,0 - 42 23 74 40 W 1010,8 7 0,8
07.12.2018 14:00:00 8,5 4,9 - 46 25 74 40 W 1010,4 10 0,0
07.12.2018 13:00:00 9,1 2,7 - 59 32 80 43 W 1010,1 10 0,0
07.12.2018 12:00:00 10,4 3,9 - 48 26 74 40 W 1009,5 16 0,0
07.12.2018 11:00:00 10,1 4,1 - 50 27 74 40 W 1009,2 10 0,0
07.12.2018 10:00:00 9,8 5,6 - 37 20 70 38 W 1008,4 10 0,0
07.12.2018 09:00:00 9,7 5,5 12,0 48 26 68 37 W 1007,6 10 0,0
07.12.2018 08:00:00 10,2 5,9 - 41 22 63 34 W 1007,0 10 0,0
07.12.2018 07:00:00 10,5 7,5 - 39 21 59 32 W 1006,2 12 0,0
07.12.2018 06:00:00 10,9 9,6 - 35 19 50 27 W 1005,9 9 0,2
07.12.2018 05:00:00 10,5 9,6 - 35 19 70 38 W 1005,9 9 1,6
07.12.2018 04:00:00 12,4 12,1 - 52 28 70 38 SW 1006,0 3,8 2,4
07.12.2018 03:00:00 12,4 12,1 - 57 31 74 40 SW 1007,1 3,1 1,8
07.12.2018 02:00:00 12,3 12,0 - 61 33 74 40 SW 1008,1 3,2 0,8
07.12.2018 01:00:00 12,5 12,0 - 55 30 72 39 SSW 1009,7 5 0,0
07.12.2018 00:00:00 12,4 12,2 - 52 28 74 40 SSW 1010,9 7 0,0
06.12.2018 23:00:00 12,5 12,4 - 55 30 70 38 SW 1011,9 4,2 0,0
06.12.2018 22:00:00 12,4 12,4 - 46 25 59 32 SW 1012,7 4,4 0,0
06.12.2018 21:00:00 12,4 12,4 - 44 24 61 33 SW 1013,8 1,5 0,0
06.12.2018 20:00:00 12,4 12,4 - 42 23 55 30 SW 1014,5 2,2 0,2
06.12.2018 19:00:00 12,5 12,5 - 41 22 52 28 SW 1015,1 2,2 0,0
06.12.2018 18:00:00 12,5 12,4 - 39 21 54 29 SW 1015,5 5 0,2
06.12.2018 17:00:00 12,5 12,4 - 41 22 57 31 SW 1015,8 2,0 0,0
06.12.2018 16:00:00 12,5 12,4 - 42 23 55 30 SW 1015,7 3,0 0,0
06.12.2018 15:00:00 12,5 12,3 - 44 24 57 31 WSW 1015,9 1,2 0,0
06.12.2018 14:00:00 12,5 12,2 - 41 22 55 30 SW 1015,8 3,0 0,0
06.12.2018 13:00:00 12,4 12,1 - 39 21 61 33 SW 1016,3 2,0 0,0
06.12.2018 12:00:00 12,4 11,9 - 42 23 59 32 SW 1016,8 3,0 0,0
06.12.2018 11:00:00 12,6 11,6 - 39 21 55 30 SW 1017,2 8 0,0
06.12.2018 10:00:00 12,6 11,3 - 41 22 52 28 SW 1017,0 8 0,0
06.12.2018 09:00:00 12,0 11,0 - 34 18 - - SW - 8 0,0
06.12.2018 08:00:00 12,0 11,0 - 34 18 - - WSW - 8 0,0
06.12.2018 07:00:00 - - - - - - - - - - 0,0
06.12.2018 06:00:00 - - - - - - - - - - 0,0
06.12.2018 05:00:00 - - - - - - - - - - 0,0
06.12.2018 04:00:00 - - - - - - - - - - 0,0
06.12.2018 03:00:00 - - - - - - - - - - -
06.12.2018 02:00:00 - - - - - - - - - - 0,0
06.12.2018 01:00:00 - - - - - - - - - - 0,0
06.12.2018 00:00:00 - - - - - - - - - - 0,0
05.12.2018 23:00:00 - - - - - - - - - - 0,0
05.12.2018 22:00:00 - - - - - - - - - - 0,0
05.12.2018 21:00:00 - - - - - - - - - - 0,0
05.12.2018 20:00:00 12,0 11,9 - 18 10 - - W 1011,6 2,1 0,0
05.12.2018 19:00:00 12,2 12,1 - 22 12 - - W 1011,2 6 0,2
05.12.2018 18:00:00 12,3 12,2 - 21 11 - - W 1010,5 2,3 0,0
05.12.2018 17:00:00 12,3 12,2 - 24 13 - - WSW 1009,4 6 0,2
05.12.2018 16:00:00 12,4 12,1 - 24 13 - - SW 1009,1 1,9 1,8
05.12.2018 15:00:00 12,5 12,1 - 31 17 - - SW 1009,0 6 0,0
05.12.2018 14:00:00 12,9 12,6 - 29 16 - - SW 1009,2 4,5 0,0
05.12.2018 13:00:00 13,0 12,8 - 29 16 - - SW 1009,5 7 0,0
05.12.2018 12:00:00 12,8 12,7 - 28 15 - - SW 1009,8 6 0,0
05.12.2018 11:00:00 12,7 12,6 - 34 18 54 29 SW 1010,0 4,0 0,6
05.12.2018 10:00:00 12,6 12,5 - 35 19 63 34 SSW 1010,0 3,5 4,0
05.12.2018 09:00:00 12,6 12,5 11,4 54 29 65 35 SSW 1010,2 2,3 2,4
05.12.2018 08:00:00 12,5 12,4 - 54 29 65 35 S 1010,2 2,4 2,0
05.12.2018 07:00:00 12,5 12,3 - 50 27 61 33 S 1010,7 2,1 0,0
05.12.2018 06:00:00 12,4 12,2 - 46 25 55 30 S 1011,2 2,4 0,2
05.12.2018 05:00:00 12,5 12,2 - 46 25 54 29 S 1011,9 6 0,0
05.12.2018 04:00:00 12,6 12,2 - 44 24 52 28 S 1012,6 7 0,0
05.12.2018 03:00:00 12,5 12,1 - 42 23 48 26 SSW 1013,4 7 0,0
05.12.2018 02:00:00 12,5 12,1 - 41 22 48 26 SSW 1013,7 7 0,0
05.12.2018 01:00:00 12,4 12,0 - 39 21 46 25 SSW 1014,3 8 0,0
05.12.2018 00:00:00 12,4 12,1 - 41 22 46 25 SSW 1014,6 10 0,0
04.12.2018 23:00:00 12,5 12,3 - 39 21 48 26 SSW 1015,0 10 0,0
04.12.2018 22:00:00 12,4 12,3 - 37 20 46 25 S 1014,9 6 0,0
04.12.2018 21:00:00 12,3 12,2 - 24 13 - - SSW 1015,2 9 0,0
04.12.2018 20:00:00 12,4 12,4 - 31 17 - - SSW 1015,3 2,1 0,4
04.12.2018 19:00:00 11,8 11,8 - 34 18 50 27 SSE 1015,4 3,5 1,2
04.12.2018 18:00:00 11,3 11,2 - 34 18 - - SE 1015,9 2,2 1,8
04.12.2018 17:00:00 11,4 11,2 - 31 17 - - SE 1016,6 2,7 2,2
04.12.2018 16:00:00 11,1 10,8 - 29 16 46 25 SE 1017,6 4,0 1,8
04.12.2018 15:00:00 11,0 9,8 - 37 20 46 25 SE 1017,9 8 0,4
04.12.2018 14:00:00 11,3 9,0 - 31 17 - - SE 1018,5 10 0,0
04.12.2018 13:00:00 11,2 8,1 - 31 17 - - SE 1019,6 10 0,0
04.12.2018 12:00:00 11,0 8,3 - 35 19 - - SE 1020,0 10 0,0
04.12.2018 11:00:00 10,8 7,9 - 31 17 - - ESE 1020,3 10 0,0
04.12.2018 10:00:00 10,3 7,3 - 31 17 - - ESE 1020,4 35 0,0

tt = temperature
td = dewpoint
tt -20cm = temperature -20cm
ff = wind speed
fx = gusts
dd = wind direction
ppp = reduced air pressure
vv = visibility
rr = precipitation

Next stations